User: anonymous
Location: Columbia
(38.9520°N, 92.3340°W)
Time: 23:36:40
(UTC-05:00)
Language:

Iridium 15 - Orbit

View from above orbital plane
View from above orbital plane
View from above satellite
View from above satellite

Ground track
Ground track

The orbit data is extracted from the following two-line orbital elements,

1 24869U 97034A   14245.48272978  .00000081  00000-0  21853-4 0   460
2 24869 086.3921 087.6562 0002101 103.9425 317.3866 14.34217389897901
Epoch (UTC): 02 September 2014 11:35:07
Eccentricity: 0.0002101
inclination: 86.3921°
perigee height: 776 km
apogee height: 779 km
right ascension of ascending node: 87.6562°
argument of perigee: 103.9425°
revolutions per day: 14.34217389
mean anomaly at epoch: 317.3866°
orbit number at epoch: 89790

The dashed part of the orbit path shows where the satellite is in the earth's shadow,  

DLR